Flag for U.S.A. Weather past 2 weeks in Monterey, California, U.S.A.

Now
61 °F

Sunny.


Feels Like: 61 °F
Forecast: 51 / 63 °F
Wind: 6 mph from Southwest

Location: Monterey Peninsula Airport

Current Time: Mar 28, 2015 at 9:09:54 PM

Latest Report: Mar 28, 2015 at 7:54 PM


Visibility: 10 mi

Pressure: 30.13 "Hg

Humidity: 50%

Dew point: 42 °F

Location of MontereyLocation

Historic Weather in Monterey — Graph

°F

Monterey temperature yesterday

Maximum temperature yesterday: 61 °F (at 2:01 PM)
Minimum temperature yesterday: 47 °F (at 3:54 AM)
Average temperature yesterday: 54 °F

Past Weeks' High & Low Weather Summary

 TemperatureHumidityPressure
High86 °F (Mar 14, 1:54 PM)100% (Mar 26, 10:54 PM)30.35 "Hg (Mar 26, 10:54 PM)
Low46 °F (Mar 18, 4:54 AM)19% (Mar 14, 3:54 PM)30.00 "Hg (Mar 14, 5:54 PM)
Average58 °F70%30.16 "Hg
* Reported Mar 13 6:54 PM — Mar 28 6:54 PM, Monterey, Weather by CustomWeather, © 2015

Note: Actual official high and low records may vary slightly from our data, if they occured in-between our weather recording intervals... More about our weather records

Advertising

Monterey weather history for previous 24 hours

 ConditionsComfort  
Time TempWeatherWind HumidityBarometerVisibility
6:54 PM
Sat, Mar 28
63 °FSunny.8 mph48%30.13 "Hg10 mi
5:54 PM64 °FSunny.5 mph52%30.13 "Hg10 mi
4:54 PM65 °FSunny.8 mph51%30.12 "Hg10 mi
3:54 PM67 °FSunny.7 mph51%30.13 "Hg10 mi
2:54 PM63 °FSunny.9 mph65%30.14 "Hg10 mi
1:54 PM64 °FSunny.6 mph65%30.15 "Hg10 mi
12:54 PM65 °FSunny.5 mph63%30.17 "Hg10 mi
11:54 AM62 °FSunny.3 mph70%30.20 "Hg10 mi
10:54 AM61 °FSunny.3 mph72%30.20 "Hg10 mi
9:54 AM60 °FSunny.5 mph72%30.20 "Hg10 mi
8:57 AM52 °FFog.No wind100%30.15 "Hg3 mi
8:04 AM52 °FFog.No wind100%30.15 "Hg3 mi
7:54 AM51 °FFog.No wind96%30.19 "Hg1 mi
6:54 AM52 °FFog.No wind97%30.18 "Hg3 mi
5:54 AM52 °FFog.No wind97%30.19 "Hg5 mi
4:54 AM52 °FFog.3 mph93%30.19 "Hg1 mi
4:03 AM52 °FFog.No wind88%30.15 "Hg1 mi
2:54 AM53 °FClear.3 mph83%30.19 "Hg10 mi
1:54 AM53 °FClear.6 mph83%30.21 "Hg10 mi
12:54 AM53 °FClear.No wind86%30.21 "Hg10 mi
11:54 PM
Fri, Mar 27
54 °FClear.5 mph86%30.21 "Hg10 mi
11:01 PM55 °FPassing clouds.3 mph82%30.19 "Hg10 mi
10:54 PM55 °FPassing clouds.3 mph87%30.22 "Hg10 mi
9:54 PM55 °FPassing clouds.6 mph83%30.22 "Hg10 mi
Weather by CustomWeather, © 2015

See weather overviewHow to use our weather pages